Location: Bennemühlen
(52.5740°N, 9.7135°E)
Time: 02:54:16
(UTC+00:00)

Vanguard 2 Rocket - Pass Details

Date: 25 February 2026
Orbit: 553 x 3287 km, 32.9° (Epoch: 5 March)

Event Time Altitude Azimuth Distance (km) Brightness Sun altitude
Rises 12:33:20 0° 254° (WSW) 7,247 11.9 27.2°
Reaches altitude 10° 12:38:51 10° 248° (WSW) 6,224 11.8 26.9°
Maximum altitude 12:55:15 36° 192° (SSW) 3,893 12.2 26.1°
Drops below altitude 10° 13:07:28 10° 132° (SE) 4,662 10.8 25.3°
Sets 13:10:54 0° 124° (SE) 5,313 10.9 25.1°
